| time (UTC) | temp C | wind direction | speed KPH | gust KPH | rain 1hr cm | rain 24hr cm | rain mn cm | humidity % | barometer mb |
| 20260505170016 | 17 | 135 | 11.3 | 19.3 | 0.00 | 0.00 | 0.00 | 80 | 1017.2 |
| 20260505165516 | 17 | 135 | 9.7 | 17.7 | 0.00 | 0.00 | 0.00 | 79 | 1017.2 |
| 20260505165018 | 17 | 135 | 9.7 | 16.1 | 0.00 | 0.00 | 0.00 | 79 | 1017.2 |
| 20260505164518 | 17 | 135 | 11.3 | 17.7 | 0.00 | 0.00 | 0.00 | 78 | 1017.1 |
| 20260505164018 | 18 | 158 | 8.0 | 17.7 | 0.00 | 0.00 | 0.00 | 78 | 1017.2 |
| 20260505163558 | 18 | 135 | 8.0 | 14.5 | 0.00 | 0.00 | 0.00 | 78 | 1017.1 |
| 20260505163018 | 18 | 158 | 9.7 | 17.7 | 0.00 | 0.00 | 0.00 | 77 | 1017.2 |
| 20260505162558 | 18 | 135 | 8.0 | 19.3 | 0.00 | 0.00 | 0.00 | 77 | 1017.2 |
| 20260505162038 | 18 | 135 | 6.4 | 20.9 | 0.00 | 0.00 | 0.00 | 78 | 1017.1 |
| 20260505161538 | 18 | 135 | 6.4 | 11.3 | 0.00 | 0.00 | 0.00 | 78 | 1017.2 |
| 20260505161017 | 17 | 135 | 8.0 | 17.7 | 0.00 | 0.00 | 0.00 | 78 | 1017.3 |
| 20260505160518 | 17 | 135 | 9.7 | 19.3 | 0.00 | 0.00 | 0.00 | 78 | 1017.1 |
| 20260505153018 | 18 | 135 | 9.7 | 20.9 | 0.00 | 0.00 | 0.00 | 76 | 1016.8 |
| 20260505152517 | 18 | 135 | 11.3 | 20.9 | 0.00 | 0.00 | 0.00 | 76 | 1017.0 |
| 20260505152018 | 18 | 135 | 11.3 | 19.3 | 0.00 | 0.00 | 0.00 | 76 | 1017.1 |
| 20260505151519 | 18 | 135 | 14.5 | 25.7 | 0.00 | 0.00 | 0.00 | 76 | 1017.2 |
| 20260505151017 | 18 | 135 | 11.3 | 20.9 | 0.00 | 0.00 | 0.00 | 76 | 1017.1 |
| 20260505150538 | 18 | 135 | 11.3 | 19.3 | 0.00 | 0.00 | 0.00 | 77 | 1017.0 |
| 20260505140538 | 18 | 158 | 11.3 | 20.9 | 0.00 | 0.00 | 0.00 | 68 | 1017.4 |
| 20260505125017 | 20 | 158 | 12.9 | 27.4 | 0.00 | 0.00 | 0.00 | 65 | 1017.6 |
| 20260505124517 | 19 | 135 | 19.3 | 32.2 | 0.00 | 0.00 | 0.00 | 66 | 1017.5 |
| 20260505124017 | 19 | 135 | 14.5 | 25.7 | 0.00 | 0.00 | 0.00 | 67 | 1017.7 |
| 20260505123537 | 19 | 135 | 19.3 | 25.7 | 0.00 | 0.00 | 0.00 | 67 | 1017.7 |
| 20260505123017 | 19 | 135 | 19.3 | 27.4 | 0.00 | 0.00 | 0.00 | 67 | 1017.6 |
| 20260505122518 | 19 | 135 | 14.5 | 25.7 | 0.00 | 0.00 | 0.00 | 68 | 1017.7 |
| 20260505122017 | 19 | 135 | 16.1 | 24.1 | 0.00 | 0.00 | 0.00 | 68 | 1017.8 |
| 20260505121517 | 18 | 135 | 14.5 | 25.7 | 0.00 | 0.00 | 0.00 | 68 | 1017.8 |
| 20260505121017 | 19 | 135 | 16.1 | 25.7 | 0.00 | 0.00 | 0.00 | 67 | 1017.9 |
| 20260505120517 | 19 | 135 | 16.1 | 27.4 | 0.00 | 0.00 | 0.00 | 67 | 1017.8 |
| 20260505120017 | 19 | 135 | 17.7 | 27.4 | 0.00 | 0.00 | 0.00 | 67 | 1017.9 |
| 20260505115517 | 19 | 135 | 17.7 | 27.4 | 0.00 | 0.00 | 0.00 | 66 | 1017.8 |
| 20260505115017 | 19 | 135 | 12.9 | 20.9 | 0.00 | 0.00 | 0.00 | 67 | 1018.0 |
| 20260505114517 | 19 | 135 | 17.7 | 29.0 | 0.00 | 0.00 | 0.00 | 67 | 1018.0 |
| 20260505114037 | 19 | 135 | 14.5 | 24.1 | 0.00 | 0.00 | 0.00 | 68 | 1018.1 |
| 20260505113517 | 19 | 135 | 14.5 | 27.4 | 0.00 | 0.00 | 0.00 | 68 | 1018.1 |
| 20260505113017 | 19 | 135 | 14.5 | 25.7 | 0.00 | 0.00 | 0.00 | 68 | 1018.0 |
| 20260505112517 | 18 | 135 | 17.7 | 29.0 | 0.00 | 0.00 | 0.00 | 68 | 1018.2 |
| 20260505112017 | 19 | 135 | 16.1 | 25.7 | 0.00 | 0.00 | 0.00 | 68 | 1018.1 |
| 20260505111517 | 19 | 135 | 17.7 | 29.0 | 0.00 | 0.00 | 0.00 | 70 | 1018.1 |
| 20260505111037 | 19 | 135 | 14.5 | 24.1 | 0.00 | 0.00 | 0.00 | 70 | 1018.2 |
| 20260505110517 | 19 | 135 | 14.5 | 25.7 | 0.00 | 0.00 | 0.00 | 69 | 1018.1 |
| 20260505102017 | 18 | 135 | 12.9 | 20.9 | 0.00 | 0.00 | 0.00 | 73 | 1018.2 |
| 20260505101517 | 18 | 135 | 11.3 | 19.3 | 0.00 | 0.00 | 0.00 | 74 | 1018.2 |
| 20260505101017 | 18 | 135 | 11.3 | 19.3 | 0.00 | 0.00 | 0.00 | 73 | 1018.3 |
| 20260505100517 | 18 | 135 | 14.5 | 19.3 | 0.00 | 0.00 | 0.00 | 72 | 1018.3 |
| 20260505100017 | 18 | 135 | 11.3 | 20.9 | 0.00 | 0.00 | 0.00 | 72 | 1018.4 |
| 20260505095537 | 18 | 135 | 11.3 | 20.9 | 0.00 | 0.00 | 0.00 | 71 | 1018.3 |
| 20260505095017 | 19 | 135 | 14.5 | 22.5 | 0.00 | 0.00 | 0.00 | 71 | 1018.3 |
| 20260505094517 | 19 | 135 | 12.9 | 20.9 | 0.00 | 0.00 | 0.00 | 70 | 1018.4 |
| 20260505094017 | 18 | 135 | 11.3 | 19.3 | 0.00 | 0.00 | 0.00 | 71 | 1018.5 |
| 20260505093517 | 18 | 135 | 9.7 | 19.3 | 0.00 | 0.00 | 0.00 | 72 | 1018.4 |
| 20260505093017 | 18 | 135 | 12.9 | 20.9 | 0.00 | 0.00 | 0.00 | 72 | 1018.3 |
| 20260505092517 | 18 | 135 | 14.5 | 22.5 | 0.00 | 0.00 | 0.00 | 73 | 1018.4 |
| 20260505092017 | 18 | 135 | 14.5 | 22.5 | 0.00 | 0.00 | 0.00 | 73 | 1018.4 |
| 20260505091517 | 18 | 135 | 16.1 | 24.1 | 0.00 | 0.00 | 0.00 | 72 | 1018.4 |
| 20260505091017 | 18 | 135 | 16.1 | 27.4 | 0.00 | 0.00 | 0.00 | 73 | 1018.4 |
| 20260505090517 | 18 | 135 | 16.1 | 24.1 | 0.00 | 0.00 | 0.00 | 73 | 1018.4 |
| 20260505090017 | 18 | 135 | 14.5 | 25.7 | 0.00 | 0.00 | 0.00 | 73 | 1018.4 |
| 20260505085517 | 18 | 135 | 12.9 | 22.5 | 0.00 | 0.00 | 0.00 | 72 | 1018.4 |
| 20260505085037 | 18 | 135 | 11.3 | 19.3 | 0.00 | 0.00 | 0.00 | 72 | 1018.4 |
| 20260505084516 | 18 | 135 | 14.5 | 20.9 | 0.00 | 0.00 | 0.00 | 73 | 1018.5 |
| 20260505084016 | 18 | 135 | 14.5 | 20.9 | 0.00 | 0.00 | 0.00 | 73 | 1018.4 |
| 20260505083517 | 18 | 135 | 14.5 | 25.7 | 0.00 | 0.00 | 0.00 | 74 | 1018.4 |
| 20260505083016 | 18 | 113 | 11.3 | 24.1 | 0.00 | 0.00 | 0.00 | 74 | 1018.3 |
| 20260505082517 | 18 | 135 | 11.3 | 19.3 | 0.00 | 0.00 | 0.00 | 75 | 1018.4 |
| 20260505082017 | 18 | 135 | 14.5 | 22.5 | 0.00 | 0.00 | 0.00 | 75 | 1018.4 |
| 20260505081516 | 18 | 135 | 16.1 | 22.5 | 0.00 | 0.00 | 0.00 | 76 | 1018.4 |
| 20260505081016 | 18 | 135 | 12.9 | 20.9 | 0.00 | 0.00 | 0.00 | 76 | 1018.4 |
| 20260505080517 | 18 | 135 | 12.9 | 20.9 | 0.00 | 0.00 | 0.00 | 76 | 1018.4 |
| 20260505080036 | 18 | 113 | 14.5 | 22.5 | 0.00 | 0.00 | 0.00 | 77 | 1018.4 |
| 20260505075516 | 18 | 135 | 12.9 | 22.5 | 0.00 | 0.00 | 0.00 | 76 | 1018.2 |
| 20260505075016 | 18 | 135 | 11.3 | 22.5 | 0.00 | 0.00 | 0.00 | 76 | 1018.2 |
| 20260505074517 | 18 | 113 | 16.1 | 22.5 | 0.00 | 0.00 | 0.00 | 77 | 1018.2 |
| 20260505074016 | 18 | 135 | 16.1 | 22.5 | 0.00 | 0.00 | 0.00 | 77 | 1018.2 |
| 20260505073516 | 18 | 135 | 12.9 | 20.9 | 0.00 | 0.00 | 0.00 | 76 | 1018.3 |
| 20260505073017 | 18 | 135 | 9.7 | 19.3 | 0.00 | 0.00 | 0.00 | 75 | 1018.4 |
| 20260505072517 | 18 | 135 | 11.3 | 17.7 | 0.00 | 0.00 | 0.00 | 75 | 1018.4 |
| 20260505072016 | 18 | 135 | 14.5 | 20.9 | 0.00 | 0.00 | 0.00 | 77 | 1018.4 |
| 20260505071516 | 18 | 135 | 11.3 | 19.3 | 0.00 | 0.00 | 0.00 | 78 | 1018.3 |
| 20260505071036 | 18 | 135 | 12.9 | 17.7 | 0.00 | 0.00 | 0.00 | 78 | 1018.5 |
| 20260505070516 | 17 | 135 | 12.9 | 17.7 | 0.00 | 0.00 | 0.00 | 79 | 1018.5 |
| 20260505070017 | 17 | 135 | 12.9 | 17.7 | 0.00 | 0.00 | 0.00 | 78 | 1018.4 |
| 20260505065517 | 17 | 135 | 9.7 | 14.5 | 0.00 | 0.00 | 0.00 | 78 | 1018.3 |
| 20260505065016 | 17 | 135 | 8.0 | 16.1 | 0.00 | 0.00 | 0.00 | 78 | 1018.4 |
| 20260505064516 | 17 | 135 | 8.0 | 16.1 | 0.00 | 0.00 | 0.00 | 78 | 1018.3 |
| 20260505064016 | 17 | 113 | 9.7 | 16.1 | 0.00 | 0.00 | 0.00 | 79 | 1018.3 |
| 20260505063517 | 17 | 135 | 11.3 | 17.7 | 0.00 | 0.00 | 0.00 | 79 | 1018.3 |
| 20260505063016 | 17 | 135 | 9.7 | 14.5 | 0.00 | 0.00 | 0.00 | 79 | 1018.4 |
| 20260505062516 | 17 | 135 | 11.3 | 16.1 | 0.00 | 0.00 | 0.00 | 79 | 1018.5 |
| 20260505062057 | 17 | 113 | 8.0 | 14.5 | 0.00 | 0.00 | 0.00 | 78 | 1018.5 |
| 20260505061516 | 17 | 135 | 11.3 | 16.1 | 0.00 | 0.00 | 0.00 | 78 | 1018.4 |
| 20260505061016 | 17 | 135 | 9.7 | 17.7 | 0.00 | 0.00 | 0.00 | 76 | 1018.4 |
| 20260505060516 | 17 | 135 | 8.0 | 14.5 | 0.00 | 0.00 | 0.00 | 71 | 1018.5 |
| 20260505060016 | 17 | 158 | 4.8 | 11.3 | 0.00 | 0.00 | 0.00 | 70 | 1018.3 |
| 20260505055516 | 17 | 135 | 4.8 | 9.7 | 0.00 | 0.00 | 0.00 | 70 | 1018.3 |
| 20260505055016 | 17 | 203 | 1.6 | 6.4 | 0.00 | 0.00 | 0.00 | 69 | 1018.3 |
| 20260505054516 | 17 | 248 | 1.6 | 3.2 | 0.00 | 0.00 | 0.00 | 68 | 1018.2 |
| 20260505054016 | 17 | 0.0 | 3.2 | 0.00 | 0.00 | 0.00 | 70 | 1018.1 | |
| 20260505053536 | 16 | 338 | 1.6 | 3.2 | 0.00 | 0.00 | 0.00 | 68 | 1018.0 |
| 20260505053017 | 16 | 0.0 | 0.0 | 0.00 | 0.00 | 0.00 | 68 | 1017.9 | |
| 20260505052656 | 15 | 0.0 | 0.0 | 0.00 | 0.00 | 0.00 | 69 | 1018.0 | |
| 20260505052016 | 15 | 0.0 | 0.0 | 0.00 | 0.00 | 0.00 | 69 | 1018.0 | |
| 20260505051516 | 15 | 0.0 | 1.6 | 0.00 | 0.00 | 0.00 | 69 | 1017.9 | |
| 20260505051016 | 15 | 270 | 1.6 | 3.2 | 0.00 | 0.00 | 0.00 | 68 | 1017.9 |
| 20260505050516 | 15 | 270 | 1.6 | 3.2 | 0.00 | 0.00 | 0.00 | 68 | 1017.8 |
| 20260505041516 | 15 | 0.0 | 0.0 | 0.00 | 0.00 | 0.00 | 68 | 1017.5 | |
| 20260505041016 | 15 | 0.0 | 0.0 | 0.00 | 0.00 | 0.00 | 68 | 1017.5 | |
| 20260505040516 | 15 | 0.0 | 0.0 | 0.00 | 0.00 | 0.00 | 70 | 1017.6 | |
| 20260505040016 | 15 | 0.0 | 1.6 | 0.00 | 0.00 | 0.00 | 69 | 1017.5 | |
| 20260505035516 | 15 | 0.0 | 3.2 | 0.00 | 0.00 | 0.00 | 70 | 1017.4 | |
| 20260505035016 | 15 | 0.0 | 0.0 | 0.00 | 0.00 | 0.00 | 71 | 1017.5 | |
| 20260505034516 | 15 | 0.0 | 1.6 | 0.00 | 0.00 | 0.00 | 69 | 1017.5 | |
| 20260505034016 | 15 | 248 | 1.6 | 1.6 | 0.00 | 0.00 | 0.00 | 69 | 1017.4 |
| 20260505033516 | 15 | 225 | 1.6 | 1.6 | 0.00 | 0.00 | 0.00 | 69 | 1017.4 |
| 20260505033016 | 15 | 0.0 | 1.6 | 0.00 | 0.00 | 0.00 | 70 | 1017.4 | |
| 20260505032536 | 15 | 0.0 | 0.0 | 0.00 | 0.00 | 0.00 | 69 | 1017.4 | |
| 20260505032036 | 15 | 0.0 | 0.0 | 0.00 | 0.00 | 0.00 | 69 | 1017.5 | |
| 20260505031516 | 15 | 0.0 | 0.0 | 0.00 | 0.00 | 0.00 | 69 | 1017.4 | |
| 20260505031016 | 15 | 0.0 | 0.0 | 0.00 | 0.00 | 0.00 | 69 | 1017.5 | |
| 20260505030518 | 15 | 0.0 | 3.2 | 0.00 | 0.00 | 0.00 | 68 | 1017.5 | |
| 20260505030038 | 15 | 0.0 | 1.6 | 0.00 | 0.00 | 0.00 | 68 | 1017.5 | |
| 20260505025518 | 15 | 0.0 | 0.0 | 0.00 | 0.00 | 0.00 | 67 | 1017.5 | |
| 20260505025018 | 15 | 0.0 | 0.0 | 0.00 | 0.00 | 0.00 | 67 | 1017.6 | |
| 20260505024518 | 15 | 0.0 | 0.0 | 0.00 | 0.00 | 0.00 | 66 | 1017.6 | |
| 20260505024018 | 15 | 0.0 | 0.0 | 0.00 | 0.00 | 0.00 | 65 | 1017.6 | |
| 20260505023518 | 15 | 0.0 | 0.0 | 0.00 | 0.00 | 0.00 | 63 | 1017.6 | |
| 20260505023018 | 15 | 0.0 | 0.0 | 0.00 | 0.00 | 0.00 | 61 | 1017.6 | |
| 20260505022518 | 16 | 0.0 | 0.0 | 0.00 | 0.00 | 0.00 | 61 | 1017.6 | |
| 20260505022038 | 16 | 0.0 | 0.0 | 0.00 | 0.00 | 0.00 | 60 | 1017.6 | |
| 20260505021538 | 16 | 0.0 | 1.6 | 0.00 | 0.00 | 0.00 | 58 | 1017.7 | |
| 20260505021018 | 16 | 0.0 | 1.6 | 0.00 | 0.00 | 0.00 | 57 | 1017.7 | |
| 20260505020517 | 16 | 0.0 | 0.0 | 0.00 | 0.00 | 0.00 | 58 | 1017.7 | |
| 20260505020017 | 16 | 0.0 | 0.0 | 0.00 | 0.00 | 0.00 | 57 | 1017.7 | |
| 20260505015518 | 16 | 135 | 1.6 | 3.2 | 0.00 | 0.00 | 0.00 | 57 | 1017.7 |
| 20260505015018 | 17 | 293 | 1.6 | 4.8 | 0.00 | 0.00 | 0.00 | 53 | 1017.7 |
| 20260505014517 | 16 | 293 | 3.2 | 4.8 | 0.00 | 0.00 | 0.00 | 53 | 1017.8 |
| 20260505014018 | 17 | 270 | 1.6 | 3.2 | 0.00 | 0.00 | 0.00 | 53 | 1017.8 |
| 20260505013518 | 17 | 270 | 3.2 | 4.8 | 0.00 | 0.00 | 0.00 | 52 | 1017.8 |
| 20260505013018 | 17 | 270 | 4.8 | 6.4 | 0.00 | 0.00 | 0.00 | 52 | 1017.8 |
| 20260505012517 | 17 | 270 | 4.8 | 6.4 | 0.00 | 0.00 | 0.00 | 53 | 1017.8 |
| 20260505012017 | 16 | 270 | 4.8 | 4.8 | 0.00 | 0.00 | 0.00 | 53 | 1017.9 |
| 20260505011517 | 17 | 293 | 4.8 | 4.8 | 0.00 | 0.00 | 0.00 | 53 | 1017.8 |
| 20260505011017 | 16 | 293 | 4.8 | 6.4 | 0.00 | 0.00 | 0.00 | 53 | 1017.8 |
| 20260505010538 | 16 | 293 | 4.8 | 6.4 | 0.00 | 0.00 | 0.00 | 54 | 1017.9 |
| 20260505010018 | 16 | 270 | 4.8 | 6.4 | 0.00 | 0.00 | 0.00 | 53 | 1017.9 |
| 20260505005518 | 16 | 270 | 4.8 | 6.4 | 0.00 | 0.00 | 0.00 | 53 | 1017.9 |
| 20260505005017 | 16 | 270 | 6.4 | 9.7 | 0.00 | 0.00 | 0.00 | 53 | 1017.9 |
| 20260505004517 | 16 | 270 | 4.8 | 8.0 | 0.00 | 0.00 | 0.00 | 52 | 1017.9 |
| 20260505004017 | 16 | 270 | 4.8 | 6.4 | 0.00 | 0.00 | 0.00 | 53 | 1017.9 |
| 20260505003538 | 16 | 270 | 6.4 | 8.0 | 0.00 | 0.00 | 0.00 | 53 | 1018.0 |
| 20260505003037 | 16 | 270 | 4.8 | 6.4 | 0.00 | 0.00 | 0.00 | 54 | 1018.0 |
| 20260505002518 | 16 | 270 | 4.8 | 6.4 | 0.00 | 0.00 | 0.00 | 55 | 1018.0 |
| 20260505002018 | 15 | 270 | 3.2 | 4.8 | 0.00 | 0.00 | 0.00 | 57 | 1018.1 |
| 20260505001518 | 15 | 270 | 1.6 | 3.2 | 0.00 | 0.00 | 0.00 | 58 | 1018.1 |
| 20260505001017 | 15 | 270 | 3.2 | 4.8 | 0.00 | 0.00 | 0.00 | 57 | 1018.2 |
| 20260505000517 | 15 | 270 | 1.6 | 4.8 | 0.00 | 0.00 | 0.00 | 58 | 1018.2 |
| 20260505000017 | 15 | 0.0 | 1.6 | 0.00 | 0.00 | 0.00 | 60 | 1018.3 | |
| 20260504235517 | 15 | 270 | 3.2 | 4.8 | 0.00 | 0.00 | 0.00 | 60 | 1018.3 |
| 20260504235017 | 15 | 270 | 4.8 | 6.4 | 0.00 | 0.00 | 0.00 | 59 | 1018.4 |
| 20260504234517 | 15 | 270 | 4.8 | 6.4 | 0.00 | 0.00 | 0.00 | 63 | 1018.5 |
| 20260504234017 | 15 | 270 | 3.2 | 6.4 | 0.00 | 0.00 | 0.00 | 63 | 1018.6 |
| 20260504233538 | 15 | 0.0 | 1.6 | 0.00 | 0.00 | 0.00 | 65 | 1018.6 | |
| 20260504233017 | 15 | 270 | 1.6 | 3.2 | 0.00 | 0.00 | 0.00 | 66 | 1018.7 |
| 20260504232558 | 15 | 293 | 3.2 | 4.8 | 0.00 | 0.00 | 0.00 | 66 | 1018.8 |
| 20260504232037 | 15 | 270 | 3.2 | 4.8 | 0.00 | 0.00 | 0.00 | 66 | 1018.8 |
| 20260504231517 | 15 | 270 | 1.6 | 4.8 | 0.00 | 0.00 | 0.00 | 66 | 1018.9 |
| 20260504231038 | 15 | 293 | 3.2 | 4.8 | 0.00 | 0.00 | 0.00 | 66 | 1019.0 |
| 20260504230517 | 15 | 270 | 3.2 | 3.2 | 0.00 | 0.00 | 0.00 | 68 | 1018.9 |
| 20260504230018 | 15 | 293 | 1.6 | 3.2 | 0.00 | 0.00 | 0.00 | 67 | 1019.0 |
| 20260504225517 | 15 | 0.0 | 3.2 | 0.00 | 0.00 | 0.00 | 70 | 1018.9 | |
| 20260504225017 | 15 | 293 | 1.6 | 4.8 | 0.00 | 0.00 | 0.00 | 69 | 1019.0 |
| 20260504224517 | 15 | 270 | 3.2 | 4.8 | 0.00 | 0.00 | 0.00 | 69 | 1019.0 |
| 20260504224017 | 15 | 0.0 | 3.2 | 0.00 | 0.00 | 0.00 | 71 | 1019.0 | |
| 20260504223517 | 15 | 270 | 1.6 | 1.6 | 0.00 | 0.00 | 0.00 | 71 | 1019.1 |
| 20260504223017 | 15 | 270 | 1.6 | 1.6 | 0.00 | 0.00 | 0.00 | 72 | 1019.2 |
| 20260504222517 | 15 | 270 | 1.6 | 3.2 | 0.00 | 0.00 | 0.00 | 71 | 1019.1 |
| 20260504222017 | 15 | 270 | 1.6 | 4.8 | 0.00 | 0.00 | 0.00 | 70 | 1019.1 |
| 20260504221517 | 15 | 270 | 4.8 | 6.4 | 0.00 | 0.00 | 0.00 | 68 | 1019.1 |
| 20260504221017 | 15 | 270 | 3.2 | 6.4 | 0.00 | 0.00 | 0.00 | 68 | 1019.2 |
| 20260504220517 | 15 | 270 | 3.2 | 6.4 | 0.00 | 0.00 | 0.00 | 68 | 1019.3 |
| 20260504220017 | 15 | 270 | 3.2 | 4.8 | 0.00 | 0.00 | 0.00 | 68 | 1019.1 |
| 20260504215517 | 15 | 293 | 1.6 | 3.2 | 0.00 | 0.00 | 0.00 | 69 | 1019.1 |
| 20260504215037 | 15 | 293 | 3.2 | 4.8 | 0.00 | 0.00 | 0.00 | 70 | 1019.2 |
| 20260504214517 | 15 | 270 | 3.2 | 4.8 | 0.00 | 0.00 | 0.00 | 68 | 1019.3 |
| 20260504214017 | 15 | 293 | 1.6 | 4.8 | 0.00 | 0.00 | 0.00 | 68 | 1019.3 |
| 20260504213517 | 15 | 270 | 1.6 | 4.8 | 0.00 | 0.00 | 0.00 | 68 | 1019.3 |
| 20260504213017 | 15 | 270 | 1.6 | 3.2 | 0.00 | 0.00 | 0.00 | 71 | 1019.4 |
| 20260504212517 | 15 | 270 | 1.6 | 3.2 | 0.00 | 0.00 | 0.00 | 70 | 1019.3 |
| 20260504212017 | 15 | 270 | 1.6 | 3.2 | 0.00 | 0.00 | 0.00 | 69 | 1019.4 |
| 20260504211517 | 15 | 0.0 | 3.2 | 0.00 | 0.00 | 0.00 | 71 | 1019.3 | |
| 20260504211017 | 15 | 0.0 | 0.0 | 0.00 | 0.00 | 0.00 | 71 | 1019.4 | |
| 20260504210517 | 15 | 0.0 | 1.6 | 0.00 | 0.00 | 0.00 | 69 | 1019.4 | |
| 20260504210017 | 15 | 293 | 3.2 | 4.8 | 0.00 | 0.00 | 0.00 | 70 | 1019.5 |
| 20260504205517 | 15 | 270 | 3.2 | 4.8 | 0.00 | 0.00 | 0.00 | 72 | 1019.4 |
| 20260504205017 | 15 | 270 | 1.6 | 4.8 | 0.00 | 0.00 | 0.00 | 72 | 1019.5 |
| 20260504204517 | 15 | 293 | 3.2 | 6.4 | 0.00 | 0.00 | 0.00 | 73 | 1019.4 |
| 20260504204016 | 15 | 270 | 3.2 | 6.4 | 0.00 | 0.00 | 0.00 | 74 | 1019.4 |
| 20260504203537 | 16 | 270 | 1.6 | 3.2 | 0.00 | 0.00 | 0.00 | 74 | 1019.5 |
| 20260504203016 | 16 | 270 | 1.6 | 3.2 | 0.00 | 0.00 | 0.00 | 74 | 1019.6 |
| 20260504202517 | 16 | 270 | 1.6 | 3.2 | 0.00 | 0.00 | 0.00 | 74 | 1019.7 |
| 20260504202017 | 16 | 293 | 1.6 | 1.6 | 0.00 | 0.00 | 0.00 | 75 | 1019.7 |
| 20260504201516 | 16 | 0.0 | 3.2 | 0.00 | 0.00 | 0.00 | 76 | 1019.7 | |
| 20260504201016 | 16 | 0.0 | 1.6 | 0.00 | 0.00 | 0.00 | 75 | 1019.6 | |
| 20260504200537 | 16 | 0.0 | 3.2 | 0.00 | 0.00 | 0.00 | 75 | 1019.7 | |
| 20260504200036 | 16 | 270 | 1.6 | 3.2 | 0.00 | 0.00 | 0.00 | 75 | 1019.6 |
| 20260504195517 | 16 | 0.0 | 1.6 | 0.00 | 0.00 | 0.00 | 76 | 1019.6 | |
| 20260504195017 | 16 | 0.0 | 3.2 | 0.00 | 0.00 | 0.00 | 76 | 1019.6 | |
| 20260504194516 | 16 | 0.0 | 3.2 | 0.00 | 0.00 | 0.00 | 75 | 1019.7 | |
| 20260504194016 | 16 | 293 | 3.2 | 4.8 | 0.00 | 0.00 | 0.00 | 75 | 1019.6 |
| 20260504193516 | 16 | 270 | 4.8 | 4.8 | 0.00 | 0.00 | 0.00 | 75 | 1019.6 |
| 20260504193017 | 16 | 270 | 3.2 | 4.8 | 0.00 | 0.00 | 0.00 | 75 | 1019.6 |
| 20260504192536 | 16 | 270 | 3.2 | 4.8 | 0.00 | 0.00 | 0.00 | 76 | 1019.4 |
| 20260504192016 | 16 | 293 | 3.2 | 6.4 | 0.00 | 0.00 | 0.00 | 76 | 1019.4 |
| 20260504191516 | 16 | 270 | 3.2 | 4.8 | 0.00 | 0.00 | 0.00 | 76 | 1019.5 |
| 20260504191017 | 16 | 270 | 1.6 | 3.2 | 0.00 | 0.00 | 0.00 | 76 | 1019.4 |
| 20260504190536 | 16 | 0.0 | 1.6 | 0.00 | 0.00 | 0.00 | 76 | 1019.4 | |
| 20260504190016 | 16 | 0.0 | 1.6 | 0.00 | 0.00 | 0.00 | 76 | 1019.4 | |
| 20260504185516 | 16 | 0.0 | 3.2 | 0.00 | 0.00 | 0.00 | 76 | 1019.4 | |
| 20260504185036 | 16 | 0.0 | 3.2 | 0.00 | 0.00 | 0.00 | 75 | 1019.4 | |
| 20260504184536 | 17 | 0.0 | 3.2 | 0.00 | 0.00 | 0.00 | 75 | 1019.3 | |
| 20260504184016 | 17 | 270 | 1.6 | 3.2 | 0.00 | 0.00 | 0.00 | 75 | 1019.3 |
| 20260504183517 | 17 | 248 | 1.6 | 3.2 | 0.00 | 0.00 | 0.00 | 75 | 1019.3 |
| 20260504183016 | 17 | 0.0 | 3.2 | 0.00 | 0.00 | 0.00 | 75 | 1019.2 | |
| 20260504182556 | 17 | 180 | 1.6 | 1.6 | 0.00 | 0.00 | 0.00 | 74 | 1019.1 |
| 20260504182016 | 17 | 180 | 1.6 | 3.2 | 0.00 | 0.00 | 0.00 | 74 | 1019.0 |
| 20260504181516 | 17 | 158 | 1.6 | 4.8 | 0.00 | 0.00 | 0.00 | 74 | 1019.0 |
| 20260504181016 | 17 | 158 | 1.6 | 3.2 | 0.00 | 0.00 | 0.00 | 74 | 1019.1 |
| 20260504180517 | 17 | 0.0 | 3.2 | 0.00 | 0.00 | 0.00 | 74 | 1018.9 | |
| 20260504180016 | 17 | 0.0 | 3.2 | 0.00 | 0.00 | 0.00 | 74 | 1018.8 | |
| 20260504175556 | 17 | 180 | 1.6 | 3.2 | 0.00 | 0.00 | 0.00 | 73 | 1019.0 |
| 20260504175016 | 17 | 135 | 3.2 | 6.4 | 0.00 | 0.00 | 0.00 | 73 | 1019.0 |
| 20260504174516 | 17 | 113 | 3.2 | 6.4 | 0.00 | 0.00 | 0.00 | 73 | 1019.0 |
| 20260504174016 | 18 | 135 | 3.2 | 8.0 | 0.00 | 0.00 | 0.00 | 73 | 1018.9 |
| 20260504173516 | 18 | 135 | 4.8 | 8.0 | 0.00 | 0.00 | 0.00 | 73 | 1019.0 |
| 20260504173016 | 18 | 135 | 4.8 | 8.0 | 0.00 | 0.00 | 0.00 | 72 | 1018.9 |
| 20260504172516 | 18 | 113 | 3.2 | 8.0 | 0.00 | 0.00 | 0.00 | 72 | 1018.8 |
| 20260504172036 | 18 | 113 | 4.8 | 8.0 | 0.00 | 0.00 | 0.00 | 72 | 1018.9 |
| 20260504171516 | 18 | 113 | 4.8 | 8.0 | 0.00 | 0.00 | 0.00 | 71 | 1018.9 |
| 20260504171016 | 18 | 135 | 3.2 | 6.4 | 0.00 | 0.00 | 0.00 | 71 | 1018.7 |